Flag for Canada Weather past 2 weeks in New Westminster, British Columbia, Canada

Now
83 °F

Pleasantly warm.


Feels Like: 82 °F
Forecast: 65 / 91 °F
Wind: 5 mph from South

Location: P. Meadows Coastal Station

Current Time: Jul 4, 2015 at 8:06:23 PM

Latest Report: Jul 4, 2015 at 7:00 PM


Visibility: N/A

Pressure: 29.75 "Hg

Humidity: 35%

Dew point: 53 °F

Location of New WestminsterLocation

Historic Weather in New Westminster — Graph

°F

New Westminster temperature yesterday

Maximum temperature yesterday: 88 °F (at 5:00 PM)
Minimum temperature yesterday: 61 °F (at 6:00 AM)
Average temperature yesterday: 75 °F

Past Weeks' High & Low Weather Summary

 TemperatureHumidityPressure
High92 °F (Jul 2, 5:00 PM)94% (Jun 21, 5:00 AM)30.16 "Hg (Jun 21, 5:00 AM)
Low50 °F (Jun 21, 4:00 AM)23% (Jun 23, 7:00 PM)29.75 "Hg (Jul 4, 7:00 PM)
Average72 °F57%30.00 "Hg
* Reported Jun 19 7:00 PM — Jul 4 7:00 PM, New Westminster, Weather by CustomWeather, © 2015

Note: Actual official high and low records may vary slightly from our data, if they occured in-between our weather recording intervals... More about our weather records

Advertising

New Westminster weather history for previous 24 hours

 ConditionsComfort  
Time TempWeatherWind HumidityBarometerVisibility
7:00 PM
Sat, Jul 4
83 °FPleasantly warm.5 mph35%29.75 "HgN/A
6:00 PM85 °FPleasantly warm.7 mph31%29.75 "HgN/A
5:00 PM87 °FPleasantly warm.5 mph31%29.76 "HgN/A
4:00 PM89 °FHot.6 mph26%29.78 "HgN/A
3:00 PM87 °FPleasantly warm.8 mph28%29.80 "HgN/A
2:00 PM86 °FPleasantly warm.7 mph31%29.81 "HgN/A
1:00 PM83 °FPleasantly warm.7 mph35%29.83 "HgN/A
12:00 PM82 °FPleasantly warm.3 mph36%29.85 "HgN/A
11:00 AM79 °FWarm.2 mph40%29.85 "HgN/A
10:00 AM76 °FMild.1 mph45%29.87 "HgN/A
9:00 AM72 °FMild.2 mph52%29.88 "HgN/A
8:00 AM69 °FMild.2 mph67%29.88 "HgN/A
7:00 AM66 °FMild.2 mph73%29.88 "HgN/A
6:00 AM61 °FCool.1 mph81%29.87 "HgN/A
5:00 AM61 °FCool.1 mph79%29.87 "HgN/A
4:00 AM62 °FCool.No wind77%29.86 "HgN/A
3:00 AM64 °FMild.No wind74%29.86 "HgN/A
2:00 AM63 °FMild.3 mph73%29.86 "HgN/A
1:00 AM65 °FMild.3 mph70%29.86 "HgN/A
12:00 AM69 °FMild.2 mph59%29.85 "HgN/A
11:00 PM
Fri, Jul 3
69 °FMild.3 mph58%29.85 "HgN/A
10:00 PM73 °FMild.3 mph49%29.85 "HgN/A
9:00 PM78 °FPleasantly warm.3 mph31%29.84 "HgN/A
8:00 PM83 °FPleasantly warm.3 mph31%29.83 "HgN/A
Weather by CustomWeather, © 2015

See weather overviewHow to use our weather pages